RH
23 17 16 21 23 27 25 21 28 22 22 48 62 55 49 63 53 46 95 99 99 98 96 96 87 76 72 67 59 52 49 50 49 50 50 51 51 53 58 58 52 36 17 11 11 11 11 11 11
17 15 22 27 24 20 15 22 22 19 23 57 62 64 58 52 72 84 98 98 100 99 93 94 89 79 72 68 64 59 56 54 54 54 56 59 62 64 61 49 26 12 11 11 11 11 11 11 11
15 16 21 25 30 20 17 18 18 22 35 31 46 54 65 60 68 78 97 97 100 99 95 95 90 83 76 73 73 66 61 59 58 60 61 64 65 60 41 17 11 11 11 10 11 11 11 11 11
15 18 24 26 24 24 20 17 19 15 14 23 50 33 59 62 63 77 98 97 99 97 93 97 96 90 90 99 98 70 67 63 66 65 65 63 55 31 12 11 12 11 11 10 11 11 11 11 10
18 21 21 26 26 24 20 19 18 15 15 15 33 35 65 55 66 81 98 97 93 99 92 93 92 93 98 82 60 59 62 65 65 66 64 47 21 12 12 12 11 11 11 11 12 11 10 9 9
20 26 27 26 24 21 19 17 16 16 15 20 49 58 62 60 68 86 98 97 89 88 89 91 95 100 100 94 61 60 65 66 69 62 38 15 11 12 12 12 11 11 12 12 11 10 8 6 7
20 24 25 26 24 22 19 18 16 15 17 34 45 50 72 71 72 92 98 97 91 87 87 91 97 100 100 77 69 71 70 72 56 28 13 12 12 12 12 12 12 12 12 11 9 7 8 9 9
24 21 25 24 22 21 16 17 15 15 20 41 50 40 49 56 68 94 98 98 92 89 85 88 98 100 90 78 76 78 74 56 25 13 13 14 13 13 12 12 12 13 11 9 7 10 10 9 8
28 30 30 25 24 19 17 15 16 19 35 51 51 44 48 52 68 92 98 99 94 91 90 93 100 97 90 81 82 78 51 22 15 15 17 17 14 13 13 13 13 12 10 8 11 11 10 10 11
27 35 30 24 20 20 19 18 18 24 34 40 42 39 49 52 62 74 97 100 95 95 95 98 99 93 90 92 84 52 23 17 16 17 17 14 14 13 14 14 14 12 10 12 12 11 11 11 10
28 33 26 25 25 23 22 21 21 21 22 21 25 21 37 54 60 65 78 92 92 94 97 100 100 98 92 92 61 29 19 16 17 17 15 14 14 14 14 14 13 11 12 12 12 11 11 11 10
34 30 28 26 26 27 27 27 22 20 22 22 21 19 31 47 50 50 57 70 79 87 94 100 100 100 96 82 40 22 19 18 17 16 16 15 15 15 15 14 13 12 13 12 12 12 12 11 11
40 34 35 35 34 32 31 28 27 29 28 25 23 20 20 36 41 57 80 93 72 82 83 97 98 99 94 63 35 24 20 19 18 18 18 18 18 17 16 15 13 13 13 13 12 12 12 12 12
41 41 38 39 38 40 36 32 31 26 26 24 21 17 19 29 36 69 75 70 66 67 72 84 94 99 88 58 41 29 23 20 19 19 19 19 20 19 17 15 14 14 14 13 13 12 13 13 13
45 47 40 39 38 35 33 35 32 26 26 26 21 19 18 23 48 42 34 54 63 57 70 81 93 98 84 58 40 29 24 22 21 22 22 20 20 19 17 15 14 14 14 13 13 14 15 14 14
48 47 52 34 34 32 31 34 25 24 32 31 32 27 32 34 28 45 60 59 67 65 70 78 95 98 79 59 39 29 28 28 26 24 22 22 21 19 18 16 15 15 14 14 15 16 16 15 15
56 53 49 46 34 33 31 32 26 26 40 33 36 33 30 28 39 47 54 68 67 64 66 76 93 97 79 62 38 31 32 31 29 27 24 23 21 19 18 16 16 16 15 16 17 17 16 15 16
53 58 53 49 34 36 36 36 29 30 32 34 33 32 28 27 24 26 48 72 83 82 75 78 88 97 81 54 36 40 42 39 37 32 27 24 20 19 18 17 18 17 17 18 18 17 15 14 14
39 50 49 43 39 45 41 41 38 34 34 35 34 34 46 32 23 38 48 64 79 86 82 78 84 94 81 51 38 46 46 46 42 36 28 23 20 19 19 20 19 18 19 18 18 16 13 13 15
51 52 51 45 43 47 44 44 37 38 36 33 34 33 37 33 28 29 35 46 52 66 78 81 83 90 82 54 41 44 46 49 46 40 30 23 21 20 20 21 20 20 19 19 17 13 12 11 13
57 58 55 53 44 44 49 48 37 27 32 35 34 35 34 36 26 27 34 30 43 55 57 69 80 91 80 57 47 50 53 54 51 45 34 26 22 21 22 22 21 20 20 18 14 13 11 10 10
68 50 52 54 60 68 44 57 38 30 30 33 32 36 35 35 32 40 33 44 35 31 69 75 79 91 87 67 60 55 50 53 50 45 37 29 23 22 24 23 21 20 20 16 15 13 10 10 8
58 47 54 55 60 62 56 66 40 34 35 33 31 32 36 35 33 43 35 29 38 65 65 83 87 92 96 81 73 63 61 53 45 46 38 31 24 24 25 24 22 22 19 16 16 13 12 9 8
45 50 53 57 62 98 60 62 47 36 38 36 44 55 61 50 40 32 32 40 46 59 70 82 87 92 100 93 82 70 62 54 52 49 58 57 29 24 27 26 22 21 17 16 14 13 10 9 8
53 64 96 99 97 91 49 64 51 43 51 56 62 63 68 61 44 36 42 53 63 65 76 89 92 89 99 97 85 73 62 57 52 70 71 43 31 26 27 25 23 21 18 16 14 13 11 9 9
66 65 80 86 72 63 50 67 46 62 64 63 63 66 68 67 53 46 53 57 62 71 80 89 92 94 100 99 87 77 66 60 59 84 67 46 29 26 28 25 23 19 18 16 14 12 11 9 9
65 78 52 66 76 87 60 56 57 57 62 63 60 60 68 74 64 60 68 72 72 76 84 91 95 98 93 96 89 77 66 63 67 77 69 43 30 29 29 25 24 20 17 16 14 12 11 10 9
52 48 76 81 98 96 74 61 60 69 72 68 69 61 59 69 63 67 68 65 68 74 81 90 92 91 86 89 88 78 69 67 75 76 67 42 32 33 30 27 25 20 17 16 14 12 11 10 9
70 71 73 63 83 82 75 68 65 70 71 75 71 63 66 62 58 61 60 67 74 74 75 78 89 93 91 88 85 81 76 80 82 91 72 58 40 36 32 30 26 20 18 16 14 12 12 10 10
47 62 65 82 96 89 72 67 63 66 68 72 73 76 62 54 54 62 59 63 65 71 78 81 86 88 87 88 89 86 82 84 96 98 95 76 49 40 37 33 28 21 18 16 14 12 11 10 10
Wind_Speed
6 3 3 6 2 1 3 5 2 5 3 2 4 4 3 2 5 3 3 17 21 30 27 27 27 26 25 23 21 20 19 18 18 16 14 13 12 11 10 8 7 6 6 6 5 3 2 1 2
5 4 5 3 3 4 4 3 10 5 1 3 3 4 4 4 8 4 10 15 24 29 27 26 26 25 24 22 22 21 20 19 17 16 15 13 12 11 10 9 8 7 6 4 2 1 2 3 4
5 6 3 2 3 7 3 4 4 3 5 8 3 5 4 4 7 5 10 17 29 29 28 26 25 24 24 24 22 21 21 20 18 16 15 14 13 12 11 10 8 6 4 2 1 3 4 5 6
5 6 3 3 12 5 5 2 4 15 9 5 4 10 6 9 4 11 14 19 28 28 27 27 25 23 23 22 22 22 20 19 17 17 16 15 15 14 13 11 8 5 2 1 2 4 5 6 7
7 3 2 4 7 5 8 9 10 12 8 8 8 5 4 8 10 12 20 22 29 29 28 25 23 23 23 24 23 20 19 18 17 17 17 17 16 15 13 10 7 4 2 1 3 4 5 6 7
4 2 3 7 10 7 4 9 7 10 9 11 1 4 4 9 15 16 22 25 26 26 26 25 25 24 24 23 21 21 21 20 20 19 19 18 17 14 12 9 6 3 2 2 3 4 5 6 8
4 3 6 6 10 10 6 7 6 5 5 5 5 4 3 13 17 19 24 26 28 27 26 26 26 24 24 22 20 20 21 21 20 20 19 18 16 13 10 7 4 3 2 2 3 4 5 7 9
6 4 5 6 10 11 5 7 4 6 7 7 5 4 3 13 21 23 26 27 27 27 27 27 28 27 26 24 22 22 22 21 20 20 18 16 13 11 9 6 4 3 2 3 3 3 6 8 10
8 5 10 11 7 7 6 6 10 9 7 6 8 13 10 6 23 27 31 30 29 29 29 29 30 29 26 25 24 24 23 22 22 21 18 14 13 11 9 7 6 5 4 3 2 2 4 7 8
7 6 12 9 12 14 14 13 9 6 6 8 14 19 19 14 22 31 36 37 35 35 34 33 30 28 28 26 27 27 26 26 24 20 18 16 14 12 10 9 8 7 5 4 2 1 3 4 6
7 14 14 15 16 16 15 11 8 9 7 17 13 19 23 21 25 33 35 37 38 37 36 35 32 29 29 28 27 27 27 26 23 21 19 17 15 13 11 10 9 8 6 4 1 2 3 4 6
7 13 15 14 13 9 12 11 8 15 15 26 27 24 21 25 29 34 37 40 40 40 39 37 34 32 30 30 29 28 27 26 25 23 21 19 16 15 13 12 11 9 5 3 0 2 3 2 5
8 10 14 15 16 12 13 16 15 15 32 29 29 27 25 29 32 32 34 39 40 41 41 40 37 34 33 33 31 30 28 25 24 22 21 19 16 15 14 13 11 7 5 2 2 4 1 3 4
7 10 15 17 18 13 16 25 10 25 25 26 26 28 28 31 33 29 36 42 44 43 43 41 40 37 35 35 33 31 29 27 25 23 21 19 17 16 14 12 10 8 6 5 5 3 1 1 1
6 10 16 15 16 12 16 12 16 29 23 23 28 30 29 32 32 38 39 45 45 45 44 43 41 40 38 35 33 32 30 28 26 24 21 20 19 17 15 12 10 8 7 7 5 2 1 1 2
7 9 12 6 5 6 10 17 14 12 13 19 22 26 27 30 36 36 37 38 42 44 44 41 43 41 39 37 35 33 30 28 26 25 23 21 20 18 15 13 11 10 10 8 5 3 3 3 3
8 16 17 13 12 14 14 17 8 3 5 11 14 21 27 31 33 37 40 38 40 45 45 43 44 44 42 39 35 32 30 28 26 25 24 22 21 19 17 15 13 11 10 7 5 4 4 4 5
15 11 10 14 4 8 12 21 15 21 14 19 20 24 27 30 34 38 40 38 40 43 45 43 46 45 43 39 36 34 31 30 27 25 24 23 22 20 18 16 14 11 9 7 6 6 6 6 6
15 15 17 9 4 12 21 27 20 19 23 20 24 25 24 31 29 32 36 39 41 43 46 47 49 48 47 45 44 40 37 33 29 27 25 24 23 21 19 16 14 12 10 8 8 7 7 7 7
22 23 24 18 11 11 20 33 17 14 18 26 28 30 29 31 30 29 33 39 45 47 48 49 51 51 51 50 46 43 40 35 31 28 26 25 23 22 20 16 14 12 10 11 9 8 7 8 9
25 26 22 21 9 14 17 35 24 21 25 30 31 34 30 35 39 37 36 40 44 50 53 54 54 55 54 52 48 45 40 34 33 31 30 29 27 24 21 17 16 14 13 12 10 8 8 7 7
25 20 21 16 9 11 8 16 18 16 18 14 19 20 28 31 36 32 38 40 46 50 52 54 55 57 56 54 52 50 49 45 39 34 31 29 29 27 23 20 18 17 15 14 11 10 9 8 7
20 14 18 18 16 12 17 8 18 5 13 16 13 17 15 19 24 28 36 39 42 42 48 51 54 55 58 57 54 53 48 44 39 34 31 30 29 27 24 22 20 19 17 16 13 12 11 9 8
7 6 6 5 8 7 20 15 27 14 14 8 5 9 8 8 9 18 24 30 34 37 43 47 52 55 60 60 56 54 51 49 43 37 32 33 34 33 29 26 25 22 19 17 14 12 10 9 8
17 10 4 7 8 11 11 12 24 6 4 3 6 9 11 12 8 9 20 28 31 35 39 43 49 54 59 57 59 56 54 47 42 37 36 42 41 37 33 30 26 22 20 17 15 12 10 10 9
27 23 9 11 9 9 12 13 14 6 8 10 10 9 11 14 10 1 13 20 25 30 34 39 45 50 54 59 59 55 52 48 44 38 33 39 39 37 33 31 27 25 22 19 16 14 13 11 11
10 17 26 6 3 1 6 6 3 7 8 10 12 14 16 14 15 8 6 14 19 24 30 35 38 42 51 57 58 58 50 49 42 38 32 37 40 39 35 31 27 24 22 19 17 14 12 12 11
16 11 7 8 7 8 10 12 10 10 9 7 8 9 11 13 13 10 6 6 10 16 23 30 36 42 46 52 57 54 50 50 41 37 35 40 39 38 34 30 27 26 23 20 17 15 14 12 11
12 13 6 6 8 9 8 6 1 12 11 8 3 6 6 8 10 6 5 4 7 11 16 23 32 39 43 45 51 52 51 46 42 37 35 34 38 37 33 30 28 26 23 21 19 16 14 13 12
20 22 22 9 11 8 9 9 9 11 8 4 4 3 7 5 4 3 1 4 6 9 14 19 29 35 35 40 44 47 48 44 41 37 37 38 40 37 31 29 28 26 24 20 18 17 16 14 13
Wind_Direction
192 213 163 144 201 308 250 240 265 234 217 201 177 187 243 262 213 296 188 173 178 169 174 176 179 178 177 173 171 172 173 173 172 170 170 170 171 172 168 169 169 163 146 139 132 125 101 56 7
183 176 163 127 173 234 248 239 233 253 354 167 178 171 219 251 228 243 154 176 174 170 172 178 182 181 179 177 179 178 177 178 175 176 176 176 175 175 177 176 169 163 152 137 120 84 40 15 360
180 165 178 164 168 234 249 223 275 271 243 275 246 251 226 213 212 204 177 176 172 174 174 177 181 180 179 183 181 182 182 182 182 181 182 184 184 184 180 176 172 170 166 143 55 24 19 13 7
173 156 96 229 228 229 223 207 254 302 304 226 257 284 240 233 241 191 175 172 175 173 175 177 175 183 184 178 178 187 187 185 185 187 188 189 189 185 180 179 178 179 171 44 26 30 23 16 10
180 156 185 247 247 250 238 262 274 280 297 270 292 257 233 238 214 191 172 176 182 177 181 182 189 190 184 187 193 193 190 188 189 188 188 188 185 183 183 185 182 178 147 72 37 29 27 26 23
168 148 197 241 248 251 249 246 259 255 256 293 229 213 231 220 201 189 176 180 183 186 187 188 195 194 193 194 187 183 186 189 191 191 191 189 185 186 188 191 180 163 137 77 51 50 41 32 23
188 183 233 247 265 274 260 230 214 259 267 289 246 232 223 200 194 190 181 183 184 191 197 197 197 196 198 195 187 186 188 190 191 192 191 190 188 189 193 190 180 168 139 111 80 55 38 26 16
196 202 235 229 253 272 231 179 193 260 315 293 208 241 258 216 194 186 185 185 192 197 201 205 203 198 199 191 189 190 193 193 195 192 193 194 196 196 195 192 191 178 164 115 82 42 24 17 12
195 222 243 241 214 260 191 248 287 276 267 240 230 247 253 283 200 187 188 188 196 200 204 205 211 206 201 194 192 194 194 194 195 198 200 202 200 198 196 191 191 184 166 146 111 45 21 12 359
200 227 248 226 235 267 258 259 274 274 260 257 259 258 249 240 206 199 196 194 197 202 204 206 211 209 203 199 198 195 194 196 201 203 204 203 201 199 198 194 190 183 179 171 165 55 14 348 349
201 241 251 251 233 247 269 257 249 245 248 255 256 283 244 228 212 209 207 205 200 202 205 206 209 209 205 204 202 200 200 200 201 204 204 206 207 202 199 197 195 194 192 183 129 23 332 339 3
231 244 242 261 261 246 262 277 249 216 252 275 283 282 262 231 221 219 214 209 204 204 206 207 208 209 207 206 204 205 206 204 204 203 204 208 207 202 200 195 196 197 192 181 178 282 282 345 6
239 260 266 263 264 251 268 254 252 248 267 271 277 273 259 240 230 223 216 213 209 207 206 207 207 208 208 207 206 206 208 209 208 208 206 206 204 204 199 196 196 195 193 190 246 249 279 11 6
255 258 269 275 272 269 266 271 257 261 265 259 259 259 257 241 236 219 218 220 215 211 209 206 208 209 210 210 208 207 208 209 209 210 210 206 204 204 202 199 197 195 200 217 233 251 343 308 46
252 278 279 271 263 257 245 254 235 256 249 244 249 248 246 243 231 232 234 225 220 216 211 207 207 208 210 211 210 209 209 208 210 210 210 208 206 204 202 201 203 204 212 223 230 217 228 197 97
272 272 273 273 178 237 183 267 264 258 224 233 242 243 243 240 237 235 230 230 223 218 214 208 210 210 210 211 210 209 209 210 210 209 209 209 206 202 202 203 204 211 218 220 216 198 185 153 123
225 259 253 280 244 254 209 275 245 213 237 246 246 252 252 253 248 239 234 232 227 220 216 209 211 211 210 210 210 211 210 210 210 209 209 209 206 203 201 203 208 212 216 216 197 193 159 156 146
236 243 240 244 256 223 243 255 256 268 248 261 258 248 248 249 259 252 237 232 228 222 220 214 213 212 211 208 207 208 207 207 208 210 210 208 207 205 204 205 209 211 212 207 196 179 171 165 169
256 239 246 238 232 303 278 273 268 265 264 249 250 254 242 246 262 250 241 233 229 225 222 216 215 212 210 207 205 205 206 205 205 206 208 207 206 204 204 204 207 210 203 202 193 181 172 178 180
234 241 248 265 254 248 285 281 277 254 245 249 243 242 240 246 248 245 239 237 235 229 223 218 216 214 211 211 207 208 205 205 207 205 204 205 206 205 203 203 206 208 206 201 193 186 187 193 197
229 234 244 251 262 256 295 285 289 270 238 239 243 241 242 240 240 235 232 235 232 231 228 221 217 214 211 209 207 207 206 205 205 205 205 205 205 204 202 200 203 206 207 197 193 196 202 213 218
237 216 239 238 233 256 203 287 280 270 260 236 244 241 240 239 244 237 233 227 231 234 228 225 218 214 212 211 210 212 208 204 207 210 207 206 206 204 200 201 205 207 203 197 194 195 201 214 217
238 197 209 215 231 257 233 249 280 299 290 281 257 253 264 262 250 238 238 240 237 226 227 225 220 216 214 212 212 213 210 207 208 209 208 209 209 205 202 205 209 205 203 200 192 194 195 200 206
202 192 183 165 211 225 239 206 279 268 263 280 6 9 7 334 284 242 246 238 231 227 226 225 221 216 214 212 215 215 213 211 201 197 205 214 210 208 204 204 203 198 196 199 194 191 188 191 197
198 199 211 221 206 229 207 198 243 140 67 27 356 356 2 2 341 235 223 220 219 220 219 218 219 217 216 213 216 215 215 213 206 203 215 207 208 208 205 203 203 199 197 198 194 187 187 191 189
200 199 215 222 222 242 186 219 238 72 70 81 63 36 31 29 28 181 221 225 224 222 218 217 216 215 214 212 215 215 216 214 212 215 211 211 211 208 206 204 196 198 195 194 192 189 186 185 186
188 208 223 284 91 198 209 235 186 124 88 75 54 40 33 32 46 68 182 218 220 219 218 216 214 208 216 214 215 216 213 217 219 216 212 211 211 208 205 200 197 198 197 193 192 189 186 185 179
210 181 196 214 212 228 228 241 230 168 132 90 55 38 24 32 49 62 106 170 213 224 222 220 223 219 222 219 217 216 212 216 222 221 211 212 211 207 203 200 197 199 198 193 193 191 188 179 177
192 222 209 218 201 234 242 227 211 160 149 131 102 37 15 23 19 37 83 145 198 213 218 221 221 222 221 222 222 216 212 211 218 221 216 214 216 206 203 203 201 199 199 196 190 192 187 179 180
223 207 198 201 194 223 248 243 143 144 163 196 252 241 22 353 344 325 107 164 174 200 208 218 223 227 227 225 223 217 211 210 216 217 218 217 212 207 204 204 202 200 199 198 197 193 185 181 176